Volver al catálogo

ONEWEB-0553

ActivoComunicacionesPO
NORAD 56055·PAYLOAD·🇬🇧 United Kingdom

Lanzado Mar 26, 2023 desde Satish Dhawan Space Centre

Loading…

Próximos Pases (próximas 24 horas)

TLE

ActualizadoSource: CelesTrak SupGP

Época: Sep 14, 2026, 13:28 UTC

1 56055C 23043K   26257.56161296 -.00000586  00000+0 -15352-2 0  2576
2 56055  87.9154 211.0281 0001914  92.4630 302.0238 13.16596628    17

Sigue ONEWEB-0553 en tiempo real con AllMySat

Download on the App Store